Meteo Giornale » Osservazioni meteo Austria » Graz-Thalerhof

ore: 07:50 - Osservazioni Meteo Graz-Thalerhof
Lat. 47° 0' N Lon. 15° 26' E Alt. 340 metri s.l.m.

nuvoloso Europe/Vienna

18 °C

Nuvoloso

Temp. 24 Ore

16 °C

27 °C

Sud/Sud-Est

9.3 Km/h

Dew point 15 °C

Umidità 82 %

Visibilità  10 Km

Il sole sorge alle ore 05:00

Il sole tramonta alle ore 20:55

Data e Ora Cielo e Fenomeni T °C DP °C Um. % Pres. hPa Vis. km Vento km/h
Oggi h: 07:50 nuvoloso Nuvoloso 18 15 82 1020 10 S/SE 9.3
Oggi h: 07:20 nuvoloso Nuvoloso 17 16 93 1020 10 N 5.5
Oggi h: 06:50 nuvoloso Nuvoloso 16 15 93 1019 10 S 7.4
Oggi h: 06:20 nuvoloso Nuvoloso 17 16 93 1019 10 S/SE 11.1
Oggi h: 05:50 nuvoloso_piovaschi Debole Rovescio di Pioggia 17 15 88 1019 10 S 9.3
Oggi h: 05:20 coperto_pioggia Pioggia Debole 17 15 88 1019 10 E 11.1
Oggi h: 04:50 nuvoloso_piovaschi Debole Rovescio di Pioggia 18 14 77 1018 10 O/NO 9.3
Oggi h: 04:20 coperto_pioggia Pioggia Debole 18 15 82 1018 10 N/NO 9.3
Oggi h: 03:50 nuvoloso Nuvoloso 18 15 82 1018 10 N/NO 13
Oggi h: 03:20 poco_nuvoloso Poco Nuvoloso 19 14 72 1017 10 N/NO 14.8
Oggi h: 02:50 molto_nuvoloso Molto Nuvoloso 20 13 64 1017 10 N 20.3
Oggi h: 02:20 poco_nuvoloso Poco Nuvoloso 19 14 72 1017 10 N/NO 9.3
Oggi h: 01:50 poco_nuvoloso Poco Nuvoloso 18 16 88 1017 10 N 5.5
Oggi h: 01:20 sereno Sereno 18 16 88 1016 10 N 11.1
Oggi h: 00:50 sereno Sereno 19 16 82 1016 10 N 5.5
Ieri h: 23:50 sereno Sereno 19 16 82 1016 10 N 3.7
Ieri h: 22:50 sereno Sereno 20 16 77 1016 10 N 3.7
Ieri h: 22:20 sereno Sereno 20 17 82 1016 10 N 5.5
Ieri h: 21:50 sereno Sereno 20 16 77 1016 10 N 1.8
Ieri h: 21:20 sereno Sereno 21 16 73 1015 10 N 1.8
Ieri h: 20:50 sereno Sereno 22 16 68 1015 10 N 1.8
Ieri h: 20:20 poco_nuvoloso Poco Nuvoloso 23 16 64 1015 10 N 5.5
Ieri h: 19:50 poco_nuvoloso Poco Nuvoloso 23 16 64 1016 10 N 5.5
Ieri h: 19:20 poco_nuvoloso Poco Nuvoloso 24 16 60 1016 10 E 9.3
Ieri h: 18:50 poco_nuvoloso Poco Nuvoloso 25 16 57 1016 10 E/NE 9.3
Ieri h: 18:20 poco_nuvoloso Poco Nuvoloso 25 14 50 1015 10 SO 7.4
Ieri h: 17:50 poco_nuvoloso Poco Nuvoloso 25 14 50 1015 10 SO 11.1
Ieri h: 17:20 poco_nuvoloso Poco Nuvoloso 26 14 47 1015 10 S/SO 11.1
Ieri h: 16:50 nuvoloso Nuvoloso 27 15 47 1015 10 S/SO 14.8
Ieri h: 16:20 poco_nuvoloso Poco Nuvoloso 27 13 42 1016 10 N 5.5
Ieri h: 15:50 poco_nuvoloso Poco Nuvoloso 27 14 44 1016 10 N 7.4
Ieri h: 15:20 poco_nuvoloso Poco Nuvoloso 26 12 41 1016 10 N 5.5
Ieri h: 14:50 poco_nuvoloso Poco Nuvoloso 26 13 44 1017 10 N 5.5
Ieri h: 14:20 poco_nuvoloso Poco Nuvoloso 26 14 47 1017 10 O/NO 9.3
Ieri h: 13:50 poco_nuvoloso Poco Nuvoloso 24 14 53 1017 10 O 9.3
Ieri h: 13:20 poco_nuvoloso Poco Nuvoloso 24 15 57 1018 10 O/SO 11.1
Ieri h: 12:50 poco_nuvoloso Poco Nuvoloso 24 14 53 1018 10 O/SO 13
Ieri h: 12:20 nuvoloso Nuvoloso 25 14 50 1018 10 O/SO 7.4
Ieri h: 11:50 nuvoloso Nuvoloso 24 14 53 1018 10 N 3.7
Ieri h: 11:20 nuvoloso Nuvoloso 24 13 50 1018 10 N 3.7
Ieri h: 10:50 nuvoloso Nuvoloso 24 14 53 1018 10 N 3.7
Ieri h: 10:20 poco_nuvoloso Poco Nuvoloso 23 15 60 1018 10 N 5.5
Ieri h: 09:50 poco_nuvoloso Poco Nuvoloso 23 14 56 1018 10 SE 7.4
Ieri h: 09:20 poco_nuvoloso Poco Nuvoloso 21 14 64 1018 10 N 5.5
Ieri h: 08:50 poco_nuvoloso Poco Nuvoloso 20 14 68 1018 10 N 3.7